Home   Weather   Kleppe   Past weeks

Flag for Norway Past Weather in Kleppe, Norway — Yesterday and Last 2 Weeks

Now
44 °F

Overcast.


Feels Like: 42 °F
Forecast: 42 / 43 °F
Wind: 5 mph from West

Location: Stavanger / Sola

Current Time: Jan 19, 2017 at 7:52:08 am

Latest Report: Jan 19, 2017 at 7:00 am


Visibility: 6 mi

Pressure: 30.44 "Hg

Humidity: 98%

Dew Point: 44 °F

Location of KleppeLocation

Past Weather in Kleppe — Graph

°F

Kleppe Temperature Yesterday

Maximum temperature yesterday: 44 °F (at 10:00 pm)
Minimum temperature yesterday: 40 °F (at 1:00 am)
Average temperature yesterday: 42 °F

High & Low Weather Summary for the Past Weeks

 TemperatureHumidityPressure
High45 °F (Jan 7, 12:00 am)100% (Jan 18, 3:00 am)30.64 "Hg (Jan 18, 3:00 am)
Low15 °F (Jan 16, 4:00 am)51% (Jan 4, 2:00 pm)28.53 "Hg (Jan 11, 9:00 am)
Average36 °F83%29.92 "Hg
* Reported Jan 4 6:00 am — Jan 19 6:00 am, Kleppe, Weather by CustomWeather, © 2017

Note: Actual official high and low records may vary slightly from our data, if they occured in-between our weather recording intervals... More about our weather records

Advertising

Kleppe Weather History for the Previous 24 Hours

Scroll right to see more
 ConditionsComfort  
Time TempWeatherWind HumidityBarometerVisibility
6:00 am
Thu, Jan 19
44 °FDrizzle. Low clouds.6 mph97%30.45 "Hg2 mi
5:00 am44 °FLow clouds.5 mph95%30.45 "Hg3 mi
4:00 am44 °FFog.5 mph96%30.45 "Hg2 mi
3:00 am44 °FOvercast.5 mph94%30.43 "Hg2 mi
2:00 am44 °FOvercast.5 mph93%30.42 "Hg4 mi
1:00 am45 °FOvercast.5 mph94%30.42 "Hg7 mi
12:00 am44 °FOvercast.5 mph97%30.43 "Hg3 mi
11:00 pm
Wed, Jan 18
44 °FRain showers. Dense fog.5 mph96%30.44 "Hg2 mi
10:00 pm44 °FOvercast.2 mph97%30.45 "Hg6 mi
9:00 pm44 °FOvercast.3 mph97%30.45 "Hg7 mi
8:00 pm42 °FOvercast.1 mph98%30.43 "Hg6 mi
7:00 pm43 °FOvercast.2 mph99%30.44 "Hg6 mi
6:00 pm43 °FOvercast.2 mph99%30.44 "Hg5 mi
5:00 pm43 °FOvercast.3 mph99%30.44 "Hg4 mi
4:00 pm44 °FLow clouds.3 mph99%30.44 "Hg4 mi
3:00 pm43 °FDense fog.2 mph100%30.44 "Hg0 mi
2:00 pm43 °FOvercast.5 mph99%30.43 "Hg1 mi
1:00 pm43 °FLow clouds.5 mph100%30.44 "Hg1 mi
12:00 pm43 °FDense fog.2 mph99%30.44 "Hg0 mi
11:00 am42 °FLow clouds.3 mph99%30.42 "Hg1 mi
10:00 am42 °FDrizzle. Low clouds.3 mph98%30.42 "Hg1 mi
9:00 am42 °FDrizzle. Low clouds.5 mph98%30.42 "Hg2 mi
8:00 am42 °FRain showers. Low clouds.5 mph98%30.42 "Hg11 mi
7:00 am42 °FLow clouds.6 mph99%30.41 "Hg8 mi
Weather by CustomWeather, © 2017

See weather overviewHow to use our weather pages